GW4027 Weather Reports


Display with metric or nautical units.
time (UTC)temp
F
wind
direction
speed
MPH
gust
MPH
rain 1hr
in
rain 24hr
in
rain mn
in
humidity
%
barometer
mb
20260508080903 56 187 1.0 2.0 0.00 0.00 0.00 69 1011.6
20260508080003 56 219 0.0 2.0 0.00 0.00 0.00 70 1011.6
20260508075403 57 179 0.0 1.0 0.00 0.00 0.00 69 1011.5
20260508074503 56 58 0.0 1.0 0.00 0.00 0.00 70 1011.4
20260508073624 54 360 0.0 2.0 0.00 0.00 0.00 72 1011.5
20260508072724 55 337 0.0 2.0 0.00 0.00 0.00 72 1011.5
20260508071803 54 324 0.0 2.0 0.00 0.00 0.00 73 1011.2
20260508070903 55 284 0.0 1.0 0.00 0.00 0.00 74 1011.3
20260508070003 55 330 0.0 1.0 0.00 0.00 0.00 73 1011.1
20260508065424 54 330 0.0 1.0 0.00 0.00 0.00 75 1011.2
20260508063624 51 339 0.0 1.0 0.00 0.00 0.00 80 1010.9
20260508062703 52 0 0.0 0.0 0.00 0.00 0.00 79 1010.9
20260508061803 52 0 0.0 0.0 0.00 0.00 0.00 78 1010.8
20260508060903 53 0 0.0 0.0 0.00 0.00 0.00 76 1010.6
20260508060003 52 0 0.0 0.0 0.00 0.00 0.00 79 1010.6
20260508055403 52 0 0.0 0.0 0.00 0.00 0.00 82 1010.5
20260508054503 50 0 0.0 0.0 0.00 0.00 0.00 86 1010.4
20260508053603 47 0 0.0 0.0 0.00 0.00 0.00 87 1010.6
20260508052703 47 216 0.0 1.0 0.00 0.00 0.00 86 1010.3
20260508051803 46 217 0.0 1.0 0.00 0.00 0.00 88 1010.4
20260508050903 46 73 0.0 1.0 0.00 0.00 0.00 88 1010.4
20260508050024 45 351 0.0 1.0 0.00 0.00 0.00 89 1010.3
20260508045424 45 319 0.0 1.0 0.00 0.00 0.00 90 1010.5
20260508044524 44 0 0.0 0.0 0.00 0.00 0.00 89 1010.2
20260508043603 45 297 0.0 1.0 0.00 0.00 0.00 89 1010.2
20260508042703 45 0 0.0 0.0 0.00 0.00 0.00 89 1010.1
20260508041803 45 0 0.0 0.0 0.00 0.00 0.00 87 1010.1
20260508040903 46 0 0.0 0.0 0.00 0.00 0.00 85 1010.2
20260508040003 47 25 0.0 1.0 0.00 0.00 0.00 84 1010.1
20260508035403 48 41 0.0 1.0 0.00 0.00 0.00 84 1010.1
20260508034503 48 36 0.0 1.0 0.00 0.00 0.00 83 1009.8
20260508033603 48 47 0.0 2.0 0.00 0.00 0.00 83 1009.6
20260508032703 48 26 0.0 2.0 0.00 0.00 0.00 84 1010.0
20260508031803 47 118 0.0 1.0 0.00 0.00 0.00 85 1009.8
20260508030903 47 145 0.0 2.0 0.00 0.00 0.00 84 1009.7
20260508030003 48 38 0.0 2.0 0.00 0.00 0.00 84 1009.7
20260508025424 48 60 0.0 2.0 0.00 0.00 0.00 84 1009.7
20260508024503 48 46 0.0 1.0 0.00 0.00 0.00 84 1010.0
20260508023603 48 60 0.0 2.0 0.00 0.00 0.00 84 1010.0
20260508022703 48 45 0.0 2.0 0.00 0.00 0.00 84 1009.9
20260508021824 47 6 0.0 1.0 0.00 0.00 0.00 85 1009.8
20260508020903 46 205 0.0 3.0 0.00 0.00 0.00 85 1009.6
20260508020003 47 211 0.0 2.0 0.00 0.00 0.00 85 1009.7
20260508015403 47 188 0.0 1.0 0.00 0.00 0.00 85 1009.8
20260508014524 47 203 1.0 2.0 0.00 0.00 0.00 84 1009.6
20260508013603 46 198 1.0 2.0 0.00 0.00 0.00 85 1009.5
20260508012703 46 204 0.0 2.0 0.00 0.00 0.00 86 1009.6
20260508011803 46 198 0.0 1.0 0.00 0.00 0.00 87 1009.5
20260508010903 46 161 0.0 1.0 0.00 0.00 0.00 87 1009.7
20260508010003 46 144 0.0 1.0 0.00 0.00 0.00 86 1009.8
20260508005424 46 133 0.0 1.0 0.00 0.00 0.00 85 1009.7
20260508004503 47 148 0.0 1.0 0.00 0.00 0.00 84 1009.9
20260508003603 47 178 0.0 2.0 0.00 0.00 0.00 84 1009.8
20260508002703 47 184 0.0 2.0 0.00 0.00 0.00 84 1009.8
20260508001803 47 186 0.0 1.0 0.00 0.00 0.00 84 1009.9
20260508000903 47 57 0.0 1.0 0.00 0.00 0.00 85 1009.8
20260508000003 47 0 0.0 0.0 0.00 0.00 0.00 84 1009.8
20260507235403 47 0 0.0 0.0 0.00 0.00 0.00 83 1009.7
20260507234524 47 34 0.0 1.0 0.00 0.00 0.00 82 1009.8
20260507233603 48 158 0.0 1.0 0.00 0.00 0.00 81 1009.7
20260507232703 49 165 0.0 3.0 0.00 0.00 0.00 80 1009.6
20260507231803 49 174 0.0 3.0 0.00 0.00 0.00 79 1009.5
20260507230903 50 178 0.0 2.0 0.00 0.00 0.00 78 1009.5
20260507230003 50 163 0.0 2.0 0.00 0.00 0.00 78 1009.4
20260507225403 50 170 0.0 3.0 0.00 0.00 0.00 77 1009.4
20260507224504 51 170 1.0 4.0 0.00 0.00 0.00 76 1009.4
20260507223624 50 181 1.0 4.0 0.00 0.00 0.00 77 1009.3
20260507222703 50 144 0.0 1.0 0.00 0.00 0.00 78 1009.3
20260507221824 50 210 0.0 1.0 0.00 0.00 0.00 77 1009.6
20260507220903 51 168 0.0 2.0 0.00 0.00 0.00 76 1009.1
20260507220003 51 189 0.0 1.0 0.00 0.00 0.00 76 1009.2
20260507215403 51 171 1.0 6.0 0.00 0.00 0.00 75 1009.3
20260507214503 52 190 1.0 6.0 0.00 0.00 0.00 74 1009.3
20260507213624 52 214 1.0 3.0 0.00 0.00 0.00 74 1009.2
20260507212724 51 211 1.0 3.0 0.00 0.00 0.00 75 1009.0
20260507211803 51 220 1.0 3.0 0.00 0.00 0.00 76 1009.0
20260507210903 51 200 0.0 3.0 0.00 0.00 0.00 76 1009.0
20260507210003 51 243 0.0 3.0 0.00 0.00 0.00 76 1009.0
20260507205403 51 195 0.0 2.0 0.00 0.00 0.00 76 1008.8
20260507204524 52 200 0.0 1.0 0.00 0.00 0.00 75 1008.7
20260507203603 52 176 0.0 2.0 0.00 0.00 0.00 75 1008.6
20260507202703 51 176 0.0 2.0 0.00 0.00 0.00 76 1008.5
20260507201803 52 181 0.0 1.0 0.00 0.00 0.00 75 1008.3
20260507200903 52 193 0.0 1.0 0.00 0.00 0.00 74 1008.4
20260507200003 52 186 0.0 2.0 0.00 0.00 0.00 74 1008.5
20260507195403 52 199 1.0 2.0 0.00 0.00 0.00 74 1008.3
20260507194503 53 200 1.0 3.0 0.00 0.00 0.00 73 1008.1
20260507193603 53 187 0.0 2.0 0.00 0.00 0.00 72 1008.0
20260507192703 54 183 0.0 1.0 0.00 0.00 0.00 72 1008.2
20260507191824 54 182 0.0 1.0 0.00 0.00 0.00 71 1008.2
20260507190903 55 184 1.0 4.0 0.00 0.00 0.00 71 1008.1
20260507190004 55 194 1.0 3.0 0.00 0.00 0.00 70 1007.9
20260507185424 55 194 1.0 2.0 0.00 0.00 0.00 70 1008.0
20260507184503 55 183 1.0 4.0 0.00 0.00 0.00 70 1007.7
20260507183603 55 192 1.0 3.0 0.00 0.00 0.00 69 1007.7
20260507182703 56 194 1.0 4.0 0.00 0.00 0.00 68 1007.5
20260507181803 56 210 1.0 2.0 0.00 0.00 0.00 67 1007.6
20260507180903 56 203 0.0 1.0 0.00 0.00 0.00 68 1007.5
20260507180003 56 200 1.0 3.0 0.00 0.00 0.00 68 1007.5
20260507175403 56 205 1.0 2.0 0.00 0.00 0.00 68 1007.5
20260507174503 56 204 2.0 8.0 0.00 0.00 0.00 71 1007.5
20260507173603 56 186 1.0 3.0 0.00 0.00 0.00 71 1007.5
20260507172703 56 202 1.0 3.0 0.00 0.00 0.00 71 1007.3
20260507171803 56 197 1.0 4.0 0.00 0.00 0.00 71 1007.3
20260507170903 56 183 1.0 3.0 0.00 0.00 0.00 73 1007.5
20260507170003 56 223 1.0 3.0 0.00 0.00 0.00 73 1007.6
20260507165403 55 226 2.0 8.0 0.00 0.00 0.00 73 1007.6
20260507164503 55 201 2.0 4.0 0.00 0.00 0.00 71 1007.5
20260507163603 55 204 2.0 7.0 0.00 0.00 0.00 71 1007.6
20260507162724 55 210 3.0 8.0 0.00 0.00 0.00 78 1007.7
20260507161803 55 229 2.0 7.0 0.00 0.00 0.00 79 1007.8
20260507160903 55 209 2.0 9.0 0.00 0.00 0.00 79 1007.7
20260507160003 55 210 2.0 7.0 0.00 0.00 0.00 78 1007.9
20260507155403 56 219 3.0 7.0 0.00 0.00 0.00 76 1007.8
20260507154503 56 209 3.0 9.0 0.00 0.00 0.00 76 1007.7
20260507153624 57 197 3.0 9.0 0.00 0.00 0.00 75 1007.8
20260507152703 57 199 3.0 10.0 0.00 0.00 0.00 76 1007.8
20260507151803 57 189 2.0 7.0 0.00 0.00 0.00 75 1007.9
20260507150924 56 214 2.0 9.0 0.00 0.00 0.00 75 1007.8
20260507150024 57 197 2.0 9.0 0.00 0.00 0.00 73 1007.7
20260507145403 57 205 2.0 6.0 0.00 0.00 0.00 72 1008.0
20260507144503 57 202 2.0 6.0 0.00 0.00 0.00 71 1008.0
20260507143624 57 214 1.0 3.0 0.00 0.00 0.00 72 1008.2
20260507142703 56 212 2.0 6.0 0.00 0.00 0.00 73 1008.1
20260507141803 57 190 1.0 7.0 0.00 0.00 0.00 71 1008.2
20260507140903 56 193 2.0 6.0 0.00 0.00 0.00 69 1008.2
20260507140003 57 187 2.0 4.0 0.00 0.00 0.00 67 1008.3
20260507135403 57 213 2.0 7.0 0.00 0.00 0.00 66 1008.3
20260507134503 56 180 2.0 7.0 0.00 0.00 0.00 67 1008.3
20260507133603 56 189 2.0 6.0 0.00 0.00 0.00 73 1008.4
20260507132724 57 191 2.0 6.0 0.00 0.00 0.00 72 1008.2
20260507131824 56 234 2.0 6.0 0.00 0.00 0.00 74 1008.3
20260507130903 56 198 3.0 7.0 0.00 0.00 0.00 74 1008.3
20260507130003 58 225 2.0 8.0 0.00 0.00 0.00 70 1008.4
20260507125403 57 204 2.0 8.0 0.00 0.00 0.00 69 1008.4
20260507124503 58 202 3.0 7.0 0.00 0.00 0.00 67 1008.6
20260507123603 59 229 3.0 7.0 0.00 0.00 0.00 66 1008.4
20260507122705 60 203 3.0 7.0 0.00 0.00 0.00 62 1008.4
20260507121803 59 219 3.0 7.0 0.00 0.00 0.00 63 1008.5
20260507120903 59 214 3.0 7.0 0.00 0.00 0.00 63 1008.4
20260507120004 59 220 3.0 7.0 0.00 0.00 0.00 64 1008.6
20260507115424 59 240 3.0 7.0 0.00 0.00 0.00 65 1008.6
20260507114503 59 225 3.0 8.0 0.00 0.00 0.00 67 1008.5
20260507113603 58 235 3.0 8.0 0.00 0.00 0.00 68 1008.6
20260507112703 59 215 3.0 7.0 0.00 0.00 0.00 65 1008.6
20260507111803 60 206 3.0 7.0 0.00 0.00 0.00 64 1008.6
20260507110903 60 226 3.0 7.0 0.00 0.00 0.00 64 1008.6
20260507110003 61 219 3.0 7.0 0.00 0.00 0.00 60 1008.7
20260507105403 62 216 2.0 7.0 0.00 0.00 0.00 56 1008.5
20260507104504 61 209 2.0 7.0 0.00 0.00 0.00 54 1008.6
20260507103603 60 228 2.0 4.0 0.00 0.00 0.00 51 1008.7
20260507102703 58 216 2.0 4.0 0.00 0.00 0.00 52 1009.0
20260507101803 60 208 2.0 3.0 0.00 0.00 0.00 50 1008.8
20260507090903 58 216 1.0 7.0 0.00 0.00 0.00 57 1009.2
20260507090003 58 195 1.0 4.0 0.00 0.00 0.00 58 1009.2
20260507085423 57 213 1.0 4.0 0.00 0.00 0.00 60 1009.1
20260507084503 57 174 1.0 3.0 0.00 0.00 0.00 64 1009.1
20260507083602 55 199 1.0 4.0 0.00 0.00 0.00 65 1009.2
20260507082703 55 193 1.0 2.0 0.00 0.00 0.00 66 1009.3
20260507081802 55 181 1.0 4.0 0.00 0.00 0.00 66 1009.1